Weather History for KPNA - August, 2013

Change the Weather History Date:

Sunday, August 25, 2013

  Actual Average (KBPI) Record (KBPI)
Temperature  
Mean Temperature 62 °F 58 °F  
Max Temperature 77 °F 77 °F 90 °F (2011)
Min Temperature 46 °F 38 °F 22 °F (1989)
Degree Days  
Heating Degree Days 4 8  
Month to date heating degree days 124  
Since 1 June heating degree days 546  
Since 1 July heating degree days 241  
Cooling Degree Days 0 0  
Month to date cooling degree days 12  
Year to date cooling degree days 36  
Since 1 June cooling degree days 36  
Growing Degree Days 12 (Base 50)    
Moisture  
Dew Point 41 °F    
Average Humidity 54    
Maximum Humidity 93    
Minimum Humidity 22    
Precipitation  
Precipitation 0.00 in 0.02 in 0.07 in (2014)
Month to date precipitation 0.56  
Year to date precipitation 4.53  
Sea Level Pressure  
Sea Level Pressure 30.29 in    
Wind  
Wind Speed 3 mph (South)    
Max Wind Speed 15 mph    
Max Gust Speed 28 mph    
Visibility 10 miles    
Events      
T = Trace of Precipitation, MM = Missing Value Source: NWS Daily Summary

Daily Weather History Graph

Daily Weather History Graph

Search for Another Location

Airport or City:

Trip Planner

Search our weather history database for the weather conditions in past years. The results will help you decide how hot, cold, wet, or windy it might be!

Date:

Astronomy

Aug. 25, 2013 Rise Set
Actual Time 6:36 AM MDT 8:04 PM MDT
Civil Twilight 6:07 AM MDT 8:34 PM MDT
Nautical Twilight 5:31 AM MDT 9:10 PM MDT
Astronomical Twilight 4:53 AM MDT 9:47 PM MDT
Moon 10:29 PM MDT (8/25) 11:50 AM MDT (8/25)
Length of Visible Light 14h 27m
Length of Day
13h 28m
Waning Gibbous, 75% of the Moon is Illuminated
Aug 25
Waning Gibbous
Aug 28
Last Quarter
Sep 5
New
Sep 12
First Quarter
Sep 19
Full

Hourly Weather History & Observations

Time (MDT) Temp. Windchill Dew Point Humidity Pressure Visibility Wind Dir Wind Speed Gust Speed Precip Events Conditions
12:15 AM 55.4 °F - 44.6 °F 67% 30.27 in 10.0 mi Calm Calm - N/A   Mostly Cloudy
12:35 AM 53.6 °F - 44.6 °F 72% 30.27 in 10.0 mi West 3.5 mph - N/A   Mostly Cloudy
12:55 AM 55.4 °F - 44.6 °F 67% 30.27 in 10.0 mi Calm Calm - N/A   Mostly Cloudy
1:15 AM 53.6 °F - 44.6 °F 72% 30.27 in 10.0 mi WNW 3.5 mph - N/A   Scattered Clouds
1:35 AM 51.8 °F - 44.6 °F 76% 30.27 in 10.0 mi Calm Calm - N/A   Scattered Clouds
1:55 AM 50.0 °F - 44.6 °F 82% 30.27 in 10.0 mi NNW 3.5 mph - N/A   Scattered Clouds
2:15 AM 48.2 °F - 42.8 °F 82% 30.27 in 10.0 mi West 5.8 mph - N/A   Clear
2:35 AM 46.4 °F 44.3 °F 44.6 °F 93% 30.28 in 10.0 mi West 4.6 mph - N/A   Clear
2:55 AM 50.0 °F - 46.4 °F 87% 30.28 in 10.0 mi NW 3.5 mph - N/A   Mostly Cloudy
3:15 AM 50.0 °F - 46.4 °F 87% 30.29 in 10.0 mi Calm Calm - N/A   Overcast
3:35 AM 48.2 °F - 46.4 °F 93% 30.29 in 10.0 mi West 4.6 mph - N/A   Overcast
3:55 AM 48.2 °F - 46.4 °F 93% 30.29 in 10.0 mi WNW 4.6 mph - N/A   Overcast
4:15 AM 50.0 °F - 46.4 °F 87% 30.29 in 10.0 mi WNW 4.6 mph - N/A   Mostly Cloudy
4:35 AM 48.2 °F - 46.4 °F 93% 30.30 in 10.0 mi West 3.5 mph - N/A   Mostly Cloudy
4:55 AM 50.0 °F - 46.4 °F 87% 30.30 in 10.0 mi WNW 3.5 mph - N/A   Scattered Clouds
5:15 AM 48.2 °F - 46.4 °F 93% 30.30 in 10.0 mi Calm Calm - N/A   Scattered Clouds
5:35 AM 48.2 °F - 46.4 °F 93% 30.30 in 10.0 mi Calm Calm - N/A   Mostly Cloudy
5:55 AM 48.2 °F - 46.4 °F 93% 30.31 in 10.0 mi Calm Calm - N/A   Scattered Clouds
6:15 AM 50.0 °F - 46.4 °F 87% 30.31 in 10.0 mi Calm Calm - N/A   Scattered Clouds
6:35 AM 48.2 °F - 46.4 °F 93% 30.31 in 10.0 mi Calm Calm - N/A   Clear
6:55 AM 50.0 °F - 46.4 °F 87% 30.31 in 10.0 mi Calm Calm - N/A   Scattered Clouds
7:15 AM 46.4 °F - 44.6 °F 93% 30.32 in 10.0 mi Calm Calm - N/A   Scattered Clouds
7:35 AM 46.4 °F - 44.6 °F 93% 30.33 in 10.0 mi Calm Calm - N/A   Scattered Clouds
7:55 AM 48.2 °F - 46.4 °F 93% 30.33 in 10.0 mi Calm Calm - N/A   Clear
8:15 AM 51.8 °F - 44.6 °F 76% 30.34 in 10.0 mi Calm Calm - N/A   Clear
8:35 AM 53.6 °F - 44.6 °F 72% 30.34 in 10.0 mi Calm Calm - N/A   Clear
8:55 AM 55.4 °F - 44.6 °F 67% 30.35 in 10.0 mi Calm Calm - N/A   Clear
9:15 AM 59.0 °F - 44.6 °F 59% 30.35 in 10.0 mi East 3.5 mph - N/A   Clear
9:35 AM 60.8 °F - 44.6 °F 55% 30.35 in 10.0 mi ESE 5.8 mph - N/A   Clear
9:55 AM 62.6 °F - 44.6 °F 52% 30.35 in 10.0 mi East 6.9 mph - N/A   Clear
10:15 AM 64.4 °F - 44.6 °F 49% 30.35 in 10.0 mi East 3.5 mph - N/A   Clear
10:35 AM 64.4 °F - 44.6 °F 49% 30.34 in 10.0 mi ENE 4.6 mph - N/A   Clear
10:55 AM 66.2 °F - 41.0 °F 40% 30.34 in 10.0 mi South 6.9 mph - N/A   Clear
11:15 AM 68.0 °F - 41.0 °F 37% 30.34 in 10.0 mi Calm Calm - N/A   Clear
11:35 AM 68.0 °F - 41.0 °F 37% 30.34 in 10.0 mi WSW 5.8 mph - N/A   Clear
11:55 AM 68.0 °F - 41.0 °F 37% 30.33 in 10.0 mi West 5.8 mph - N/A   Scattered Clouds
12:15 PM 69.8 °F - 37.4 °F 31% 30.32 in 10.0 mi West 8.1 mph - N/A   Scattered Clouds
12:35 PM 71.6 °F - 37.4 °F 29% 30.32 in 10.0 mi WSW 10.4 mph - N/A   Clear
12:55 PM 69.8 °F - 37.4 °F 31% 30.32 in 10.0 mi West 4.6 mph - N/A   Clear
1:15 PM 69.8 °F - 37.4 °F 31% 30.31 in 10.0 mi Calm Calm - N/A   Clear
1:35 PM 71.6 °F - 35.6 °F 27% 30.30 in 10.0 mi WSW 3.5 mph - N/A   Clear
1:55 PM 71.6 °F - 37.4 °F 29% 30.30 in 10.0 mi South 6.9 mph - N/A   Clear
2:15 PM 73.4 °F - 37.4 °F 27% 30.29 in 10.0 mi Calm Calm - N/A   Clear
2:35 PM 73.4 °F - 35.6 °F 25% 30.29 in 10.0 mi Calm Calm - N/A   Clear
2:55 PM 73.4 °F - 33.8 °F 23% 30.29 in 10.0 mi Calm Calm - N/A   Mostly Cloudy
3:15 PM 77.0 °F - 35.6 °F 22% 30.28 in 10.0 mi ENE 6.9 mph - N/A   Mostly Cloudy
3:35 PM 73.4 °F - 35.6 °F 25% 30.27 in 10.0 mi South 3.5 mph - N/A   Mostly Cloudy
3:55 PM 73.4 °F - 35.6 °F 25% 30.27 in 10.0 mi South 5.8 mph - N/A   Overcast
4:15 PM 73.4 °F - 35.6 °F 25% 30.27 in 10.0 mi SSE 6.9 mph - N/A   Mostly Cloudy
4:35 PM 73.4 °F - 35.6 °F 25% 30.27 in 10.0 mi SSW 3.5 mph - N/A   Mostly Cloudy
4:55 PM 73.4 °F - 35.6 °F 25% 30.27 in 10.0 mi SSW 9.2 mph - N/A   Overcast
5:15 PM 71.6 °F - 33.8 °F 25% 30.27 in 10.0 mi SE 15.0 mph 27.6 mph N/A   Overcast
5:35 PM 73.4 °F - 33.8 °F 23% 30.26 in 10.0 mi ESE 6.9 mph - N/A   Overcast
5:55 PM 73.4 °F - 35.6 °F 25% 30.25 in 10.0 mi ESE 4.6 mph - N/A   Scattered Clouds
6:15 PM 71.6 °F - 37.4 °F 29% 30.25 in 10.0 mi SE 3.5 mph - N/A   Clear
6:35 PM 71.6 °F - 37.4 °F 29% 30.25 in 10.0 mi South 4.6 mph - N/A   Clear
6:55 PM 71.6 °F - 37.4 °F 29% 30.24 in 10.0 mi SSE 5.8 mph - N/A   Clear
7:15 PM 71.6 °F - 35.6 °F 27% 30.24 in 10.0 mi South 5.8 mph - N/A   Scattered Clouds
7:35 PM 69.8 °F - 37.4 °F 31% 30.24 in 10.0 mi South 4.6 mph - N/A   Scattered Clouds
7:55 PM 69.8 °F - 35.6 °F 28% 30.24 in 10.0 mi South 4.6 mph - N/A   Clear
8:15 PM 68.0 °F - 37.4 °F 33% 30.24 in 10.0 mi SSW 5.8 mph - N/A   Clear
8:35 PM 68.0 °F - 37.4 °F 33% 30.25 in 10.0 mi South 5.8 mph - N/A   Clear
8:55 PM 68.0 °F - 37.4 °F 33% 30.27 in 10.0 mi South 10.4 mph - N/A   Clear
9:15 PM 66.2 °F - 39.2 °F 37% 30.27 in 10.0 mi SSW 10.4 mph 16.1 mph N/A   Clear
9:35 PM 64.4 °F - 42.8 °F 45% 30.27 in 10.0 mi South 8.1 mph - N/A   Clear
9:55 PM 62.6 °F - 42.8 °F 48% 30.29 in 10.0 mi South 4.6 mph - N/A   Mostly Cloudy
10:15 PM 62.6 °F - 42.8 °F 48% 30.29 in 10.0 mi East 8.1 mph - N/A   Overcast
10:35 PM 60.8 °F - 42.8 °F 52% 30.29 in 10.0 mi ESE 6.9 mph - N/A   Overcast
10:55 PM 60.8 °F - 42.8 °F 52% 30.29 in 10.0 mi ESE 9.2 mph - N/A   Overcast
11:15 PM 59.0 °F - 42.8 °F 55% 30.30 in 10.0 mi ESE 9.2 mph - N/A   Scattered Clouds
11:35 PM 59.0 °F - 42.8 °F 55% 30.29 in 10.0 mi ESE 8.1 mph - N/A   Clear
11:55 PM 57.2 °F - 42.8 °F 59% 30.29 in 10.0 mi ESE 5.8 mph - N/A   Clear